ORBCOMM FM21            
1 25475U 98053A   19259.84318521  .00000052  00000-0  69896-4 0  9995
2 25475  45.0098  82.8615 0000542 109.8325 250.2579 14.32860291 95752
ORBCOMM FM22            
1 25476U 98053B   19259.84629999  .00000044  00000-0  66968-4 0  9998
2 25476  45.0094  82.7647 0002019 166.3804 193.7097 14.32946939 95776
ORBCOMM FM23            
1 25477U 98053C   19259.83095879  .00000058  00000-0  72447-4 0  9996
2 25477  45.0099  84.1221 0001294 165.7943 194.2939 14.32730349 95910
ORBCOMM FM24            
1 25478U 98053D   19259.88788336 -.00000016  00000-0  45132-4 0  9995
2 25478  45.0098  84.9604 0000787 166.3827 193.7041 14.32840827 95929
ORBCOMM FM25            
1 25479U 98053E   19259.86199786  .00000045  00000-0  67250-4 0  9995
2 25479  45.0090  83.5335 0003186 206.8598 153.2083 14.32854262 96217
ORBCOMM FM26            
1 25480U 98053F   19259.88788937  .00000048  00000-0  68790-4 0  9994
2 25480  45.0085  74.0087 0005446 234.1657 125.8684 14.32667279 96204
ORBCOMM FM27            
1 25481U 98053G   19259.87627970 -.00000024  00000-0  42358-4 0  9990
2 25481  45.0072  83.4896 0001015  28.1249 331.9652 14.32827331 96201
ORBCOMM FM28            
1 25482U 98053H   19259.83726638 -.00000031  00000-0  39376-4 0  9992
2 25482  45.0098  30.1869 0004161 238.6164 121.4276 14.33574595 96844
PEGASUS R/B(2)          
1 25484U 98053K   19259.25319969 -.00000092  00000-0  15020-4 0  9992
2 25484  44.5304 180.9926 0065602 282.5641 213.9842 14.41678231104569